Date String (YYYY-MM-DD hh:mm:ss) UTC,Instrument flags,Ambient pressure (hPa),Sample flow (lpm),Bypass flow (lpm),Sample temperature (°C),Ambient temperature (°C),ASC tube jacket temperature (°C),LED temperature (°C),Box temperature (°C),Sample RH (%),Span deviation,Mass concentration (μg/m³),Mass concentration (μg/m³),Mass concentration (μg/m³)
DateTimeUTC,F1_M11,P_M11,Q1_M11,Q2_M11,T1_M11,T2_M11,T3_M11,T4_M11,T5_M11,U1_M11,ZSPAN_M11,X0_M11,X2_M11,X1_M11
2022-08-15 21:00:00,,0829.5,5.00,0.00,30.4,27.3,00.0,38.7,31.5,34.2,0000.0,0007.40,0003.87,0003.34
2022-08-15 21:01:00,,0829.5,4.99,0.00,30.4,27.4,00.0,38.7,31.5,34.5,0000.0,0007.33,0003.84,0003.35
2022-08-15 21:02:00,,0829.5,5.01,0.00,30.5,27.6,00.0,38.7,31.6,34.1,0000.0,0007.22,0003.85,0003.37
2022-08-15 21:03:00,,0829.5,5.00,0.00,30.5,27.8,00.0,38.7,31.6,34.1,0000.0,0007.21,0003.86,0003.39
2022-08-15 21:04:00,,0829.5,5.00,0.00,30.5,28.0,00.0,38.8,31.7,34.7,0000.0,0007.31,0003.89,0003.41
2022-08-15 21:05:00,,0829.5,5.00,0.00,30.5,28.1,00.0,38.8,31.7,34.8,0000.0,0007.34,0003.92,0003.44
2022-08-15 21:06:00,,0829.5,5.00,0.00,30.6,28.3,00.0,38.8,31.8,35.4,0000.0,0006.97,0003.93,0003.47
2022-08-15 21:07:00,,0829.5,4.99,0.00,30.9,28.4,00.0,38.9,32.0,35.8,0000.0,0007.07,0003.97,0003.50
2022-08-15 21:08:00,,0829.6,5.00,0.00,31.3,28.6,00.0,38.9,32.3,35.5,0000.0,0007.00,0004.00,0003.53
2022-08-15 21:09:00,,0829.8,5.00,0.00,31.7,28.7,00.0,39.0,32.4,34.8,0000.0,0007.03,0004.05,0003.56
2022-08-15 21:10:00,,0829.8,5.00,0.00,32.0,28.8,00.0,39.1,32.5,33.8,0000.0,0007.10,0004.10,0003.59
2022-08-15 21:11:00,,0829.7,5.01,0.00,32.1,28.7,00.0,39.2,32.4,33.5,0000.0,0007.27,0004.14,0003.61
2022-08-15 21:12:00,,0829.6,5.00,0.00,32.1,28.0,00.0,39.2,32.1,33.0,0000.0,0007.33,0004.13,0003.59
2022-08-15 21:13:00,,0829.6,4.99,0.00,32.1,27.5,00.0,39.3,32.0,32.7,0000.0,0007.32,0004.11,0003.56
2022-08-15 21:14:00,,0829.6,5.00,0.00,32.0,27.3,00.0,39.3,31.9,33.2,0000.0,0007.96,0004.12,0003.53
2022-08-15 21:15:00,,0829.7,5.02,0.00,31.8,27.3,00.0,39.4,31.8,34.1,0000.0,0008.47,0004.15,0003.53
2022-08-15 21:16:00,,0829.6,4.99,0.00,31.7,27.5,00.0,39.5,31.9,33.0,0000.0,0008.62,0004.19,0003.51
2022-08-15 21:17:00,,0829.7,4.99,0.00,31.7,27.6,00.0,39.5,31.9,32.1,0000.0,0008.64,0004.17,0003.46
2022-08-15 21:18:00,,0829.6,5.00,0.00,31.6,27.8,00.0,39.5,31.9,31.1,0000.0,0008.60,0004.09,0003.37
2022-08-15 21:19:00,,0829.6,4.99,0.00,31.5,28.0,00.0,39.6,31.9,31.2,0000.0,0008.45,0003.97,0003.27
2022-08-15 21:20:00,,0829.7,5.00,0.00,31.5,28.1,00.0,39.6,31.9,31.9,0000.0,0008.35,0003.85,0003.18
2022-08-15 21:21:00,,0829.8,5.00,0.00,31.4,28.3,00.0,39.6,32.0,31.4,0000.0,0008.45,0003.76,0003.05
2022-08-15 21:22:00,,0829.8,4.99,0.00,31.4,28.4,00.0,39.6,32.0,32.1,0000.0,0008.38,0003.65,0002.88
2022-08-15 21:23:00,,0829.7,5.00,0.00,31.4,28.5,00.0,39.6,32.1,32.4,0000.0,0008.46,0003.62,0002.76
2022-08-15 21:24:00,,0829.7,5.00,0.00,31.3,28.6,00.0,39.6,32.1,31.9,0000.0,0008.57,0003.58,0002.63
2022-08-15 21:25:00,,0829.8,4.99,0.00,31.3,28.7,00.0,39.6,32.1,31.7,0000.0,0008.28,0003.48,0002.46
2022-08-15 21:26:00,,0829.8,4.99,0.00,31.3,28.7,00.0,39.6,32.1,32.3,0000.0,0007.49,0003.38,0002.29
2022-08-15 21:27:00,,0829.8,5.01,0.00,31.2,28.2,00.0,39.6,32.0,33.0,0000.0,0007.23,0003.23,0002.09
2022-08-15 21:28:00,,0829.8,4.99,0.00,31.1,27.7,00.0,39.5,31.9,33.4,0000.0,0007.15,0003.17,0001.97
2022-08-15 21:29:00,,0829.8,5.00,0.00,31.0,27.5,00.0,39.5,31.8,33.4,0000.0,0007.18,0003.16,0001.90
2022-08-15 21:30:00,,0829.8,5.01,0.00,30.9,27.5,00.0,39.4,31.7,34.1,0000.0,0007.38,0003.21,0001.89
2022-08-15 21:31:00,,0829.7,4.99,0.00,30.8,27.6,00.0,39.4,31.7,34.7,0000.0,0007.41,0003.20,0001.86
2022-08-15 21:32:00,,0829.8,5.02,0.00,30.8,27.8,00.0,39.4,31.7,34.5,0000.0,0006.84,0003.16,0001.84
2022-08-15 21:33:00,,0829.8,4.99,0.00,30.7,27.9,00.0,39.3,31.8,34.6,0000.0,0006.59,0003.12,0001.83
2022-08-15 21:34:00,,0829.8,5.00,0.00,30.7,28.0,00.0,39.3,31.8,35.1,0000.0,0005.98,0002.96,0001.78
2022-08-15 21:35:00,,0829.8,5.01,0.00,30.9,28.2,00.0,39.3,31.9,35.1,0000.0,0005.90,0002.88,0001.78
2022-08-15 21:36:00,,0829.8,5.00,0.00,31.1,28.3,00.0,39.3,32.0,34.7,0000.0,0005.92,0002.82,0001.80
2022-08-15 21:37:00,,0829.9,4.99,0.00,31.2,28.3,00.0,39.3,32.1,34.5,0000.0,0005.86,0002.82,0001.84
2022-08-15 21:38:00,,0829.9,5.00,0.00,31.3,28.4,00.0,39.3,32.0,34.5,0000.0,0005.77,0002.82,0001.87
2022-08-15 21:39:00,,0829.9,5.01,0.00,31.3,28.5,00.0,39.3,32.1,35.1,0000.0,0005.73,0002.77,0001.88
2022-08-15 21:40:00,,0829.8,5.00,0.00,31.5,28.6,00.0,39.4,32.2,34.8,0000.0,0005.65,0002.73,0001.91
2022-08-15 21:41:00,,0829.8,4.99,0.00,31.6,28.6,00.0,39.4,32.3,34.4,0000.0,0006.00,0002.71,0001.97
2022-08-15 21:42:00,,0829.9,5.00,0.00,31.7,28.1,00.0,39.4,32.0,33.9,0000.0,0005.92,0002.76,0002.05
2022-08-15 21:43:00,,0829.8,5.01,0.00,31.6,27.6,00.0,39.4,31.9,34.1,0000.0,0005.98,0002.84,0002.15
2022-08-15 21:44:00,,0829.8,5.01,0.00,31.6,27.4,00.0,39.4,31.8,34.5,0000.0,0006.26,0003.00,0002.26
2022-08-15 21:45:00,,0829.9,4.99,0.00,31.4,27.5,00.0,39.4,31.7,34.9,0000.0,0006.74,0003.16,0002.37
2022-08-15 21:46:00,,0829.8,5.02,0.00,31.4,27.6,00.0,39.5,31.8,35.5,0000.0,0007.03,0003.25,0002.48
2022-08-15 21:47:00,,0829.8,4.99,0.00,31.6,27.7,00.0,39.5,32.0,34.9,0000.0,0006.97,0003.34,0002.59
2022-08-15 21:48:00,,0829.8,5.01,0.00,31.7,27.9,00.0,39.5,32.1,34.3,0000.0,0007.67,0003.41,0002.69
2022-08-15 21:49:00,,0829.9,4.99,0.00,31.8,28.0,00.0,39.5,32.1,34.2,0000.0,0007.70,0003.45,0002.77
2022-08-15 21:50:00,,0829.9,5.01,0.00,31.8,28.1,00.0,39.6,32.1,34.2,0000.0,0007.74,0003.50,0002.87
2022-08-15 21:51:00,,0829.9,5.00,0.00,31.8,28.3,00.0,39.6,32.1,34.2,0000.0,0007.78,0003.55,0002.97
2022-08-15 21:52:00,,0829.9,5.00,0.00,31.8,28.4,00.0,39.6,32.1,34.5,0000.0,0007.65,0003.62,0003.04
2022-08-15 21:53:00,,0829.8,5.01,0.00,31.7,28.4,00.0,39.7,32.1,34.6,0000.0,0007.78,0003.68,0003.10
2022-08-15 21:54:00,,0829.8,5.00,0.00,31.7,28.5,00.0,39.7,32.1,34.8,0000.0,0007.82,0003.71,0003.12
2022-08-15 21:55:00,,0829.9,4.99,0.00,31.6,28.6,00.0,39.7,32.1,34.5,0000.0,0007.91,0003.74,0003.12
2022-08-15 21:56:00,,0829.8,5.00,0.00,31.6,28.7,00.0,39.8,32.2,34.4,0000.0,0007.91,0003.71,0003.12
2022-08-15 21:57:00,,0829.8,5.02,0.00,31.6,28.4,00.0,39.7,32.1,34.4,0000.0,0008.00,0003.66,0003.09
2022-08-15 21:58:00,,0829.8,4.99,0.00,31.5,27.8,00.0,39.7,31.9,33.9,0000.0,0007.72,0003.61,0003.06
2022-08-15 21:59:00,,0829.6,5.02,0.00,31.3,27.2,00.0,39.6,31.7,34.1,0000.0,0006.99,0003.57,0003.01
